Location: Contre
(49.7477°N, 2.0963°E)
Time: 01:08:17
(UTC+00:00)

Envisat - Pass Details

Date: 06 March 2024
Orbit: 762 x 764 km, 98.3° (Epoch: 12 April)

Event Time Altitude Azimuth Distance (km) Brightness Sun altitude
Rises 02:12:45 0° 25° (NNE) 3,241 7.1 -38.0°
Reaches altitude 10° 02:15:37 10° 41° (NE) 2,309 6.2 -37.7°
Enters shadow 02:18:45 21° 79° (E) 1,685 5.2 -37.4°
